Tracking 20066 objects as of 7-Dec-2019
HD Live streaming from Space Station
objects crossing your sky now

COSMOS 2251 DEB

Track COSMOS 2251 DEB now!
10-day predictions


NORAD ID: 36623
Int'l Code: 1993-036BEM
Perigee: 527.1 km
Apogee: 906.6 km
Inclination: 74.1 °
Period: 99.0 minutes
Semi major axis: 7087 km
RCS: 0.0069 m2 (small)
Launch date: June 16, 1993
Source: Commonwealth of Independent States (former USSR) (CIS)
Launch site: PLESETSK MISSILE AND SPACE COMPLEX (PKMTR)

Note: This is SATELLITE DEBRIS
aabbcc
Your satellite tracking list
Your tracking list is empty




NASA's NSSDC Master Catalog

Two Line Element Set (TLE):
1 36623U 93036BEM 11311.31644133 +.00010961 +00000-0 +15744-2 0  9993
2 36623 074.0846 308.9182 0267711 022.7814 339.1756 14.54892532111178
Source of the keplerian elements: AFSPC